Location: *
(44.1378°S, 174.0428°W)
Time: 03:09:12
(UTC+00:00)

Daily predictions for brighter satellites

Satellite Brightness Start Highest point End
(mag) Time Altitude Azimuth Time Altitude Azimuth Time Altitude Azimuth
Cosmos 2322 Rocket 3.6 04:34:52 10° WNW 04:40:04 35° SW 04:45:21 10° S
SL-4 R/B 1.7 04:37:34 10° WSW 04:41:15 73° SSE 04:45:10 10° ENE
STARLINK-58 3.8 04:41:05 10° W 04:44:12 43° SSW 04:47:20 10° SE
STARLINK-1302 3.7 04:41:26 10° NW 04:45:36 75° NE 04:49:50 10° ESE
Cosmos 1805 Rocket 4.1 04:41:45 10° NNE 04:45:52 40° E 04:50:03 10° SSE
STARLINK-22 4.3 04:44:08 10° W 04:47:07 31° SSW 04:50:08 10° SE
STARLINK-1273 3.7 04:46:24 10° NW 04:50:35 81° NE 04:54:46 10° ESE
Cosmos 2123 Rocket 4.0 04:44:50 10° S 04:51:07 71° E 04:57:22 10° NNE
Meteor 1-27 Rocket 4.5 04:47:47 10° S 04:53:06 33° ESE 04:58:26 10° NE
Cosmos 1538 Rocket 4.5 04:48:22 10° NNW 04:53:33 64° WSW 04:58:46 10° SSE
Cosmos 1812 3.6 04:50:41 10° SSE 04:54:08 28° ESE 04:57:33 10° NE
COSMOS 2428 2.9 04:48:33 10° N 04:54:11 59° ENE 04:59:53 10° SSE
USA 234 3.6 04:47:54 10° SE 04:54:25 62° SSW 05:00:54 10° WNW
STARLINK-1288 3.7 04:51:21 10° NW 04:55:33 87° NE 04:59:32 12° ESE
Cosmos 1461 3.8 04:52:36 10° SSW 04:55:58 25° SE 04:59:14 10° E
STARLINK-1344 4.5 04:54:42 10° SW 04:57:15 21° SSE 04:59:15 13° ESE
ADEOS Rocket 3.8 04:49:40 10° NNE 04:57:16 83° WNW 05:05:12 10° SSW
STARLINK-1343 4.5 04:54:58 10° SW 04:57:32 21° SSE 04:59:31 13° ESE
STARLINK-1346 4.5 04:55:24 10° SW 04:57:55 21° SSE 04:59:51 13° ESE
STARLINK-1328 4.5 04:55:40 10° SW 04:58:13 21° SSE 05:00:11 13° ESE
STARLINK-1354 4.5 04:55:59 10° SW 04:58:33 21° SSE 05:00:30 13° ESE
STARLINK-1347 4.5 04:56:21 10° SW 04:58:55 21° SSE 05:00:51 13° ESE
STARLINK-1357 4.5 04:56:41 10° SW 04:59:15 21° SSE 05:01:10 14° ESE
STARLINK-1335 4.5 04:57:04 10° SW 04:59:39 22° SSE 05:01:32 14° ESE
ATLAS 5 CENTAUR R/B 3.7 04:53:57 10° NNE 04:59:47 27° ENE 05:04:51 12° ESE
STARLINK-1327 4.5 04:57:20 10° SW 04:59:55 22° SSE 05:01:48 14° ESE
STARLINK-1340 4.5 04:57:41 10° SW 05:00:15 22° SSE 05:02:08 14° ESE
STARLINK-1308 3.7 04:56:21 10° WNW 05:00:34 86° SW 05:04:21 13° SE
STARLINK-1356 4.5 04:58:01 10° SW 05:00:36 22° SSE 05:02:28 14° ESE
STARLINK-1345 4.5 04:58:21 10° SW 05:00:57 22° SSE 05:02:47 14° ESE
Cosmos 1535 Rocket 4.5 04:54:55 10° N 05:01:10 84° E 05:07:25 10° S
STARLINK-1355 4.5 04:58:41 10° SW 05:01:16 22° SSE 05:03:06 14° ESE
STARLINK-1321 4.4 04:59:03 10° SW 05:01:38 22° SSE 05:03:27 14° ESE
STARLINK-1358 4.4 04:59:21 10° SW 05:01:58 22° SSE 05:03:45 14° ESE
STARLINK-1332 4.4 04:59:46 10° SW 05:02:21 22° SSE 05:04:08 15° ESE
Meteor 1-31 Rocket 4.4 04:58:51 10° S 05:02:35 37° WSW 05:06:14 10° NW
STARLINK-1348 4.4 05:00:03 10° SW 05:02:39 22° SSE 05:04:25 15° ESE
STARLINK-1330 4.4 05:00:22 10° SW 05:02:58 22° SSE 05:04:43 15° ESE
STARLINK-60 2.9 04:59:58 10° SW 05:03:16 88° SE 05:06:32 10° NE
Lacrosse 5 rocket 3.7 05:02:57 10° ENE 05:03:22 10° ENE 05:03:47 10° ENE
STARLINK-1363 4.4 05:00:47 10° SW 05:03:23 22° SSE 05:05:07 15° ESE
STARLINK-1337 4.4 05:01:04 10° SW 05:03:40 22° SSE 05:05:23 15° ESE
STARLINK-1342 4.4 05:01:24 10° SW 05:04:01 22° SSE 05:05:42 15° ESE
STARLINK-1364 4.4 05:01:43 10° SW 05:04:20 22° SSE 05:06:01 15° ESE
STARLINK-1376 4.4 05:02:05 10° SW 05:04:42 22° SSE 05:06:22 15° ESE
STARLINK-1360 4.4 05:02:24 10° SW 05:05:01 22° SSE 05:06:40 16° ESE
COSMO-SKYMED 1 3.1 05:00:41 10° N 05:05:02 65° WNW 05:09:27 10° SSW
STARLINK-1361 4.4 05:02:43 10° SW 05:05:21 22° SSE 05:06:59 16° ESE
STARLINK-1367 4.4 05:03:06 10° SW 05:05:41 22° SSE 05:07:16 16° ESE
STARLINK-1366 4.4 05:03:28 10° SW 05:06:06 23° SSE 05:07:42 16° ESE
Cosmos 2237 Rocket 3.1 05:01:52 10° NNE 05:06:40 29° ENE 05:11:03 12° SE
STARLINK-61 3.5 05:03:18 10° NW 05:07:16 78° NE 05:10:27 15° ESE
STARLINK-57 4.5 05:03:47 10° NNW 05:07:17 32° NE 05:09:54 16° ESE
CZ-4B R/B 3.7 05:02:29 10° SSE 05:07:37 39° E 05:12:47 10° NNE
STARLINK-49 4.5 05:05:22 10° NNW 05:08:51 32° NE 05:11:22 16° E
Cosmos 1707 Rocket 3.9 05:05:12 10° S 05:09:31 43° ESE 05:13:42 10° NNE
Iridium 96 3.0 05:07:55 10° S 05:09:39 65° W 05:11:23 10° N
SL-16 R/B 4.4 05:05:37 10° W 05:09:44 20° SW 05:13:54 10° S
Cosmos 1633 3.7 05:06:22 10° NNW 05:09:53 46° WSW 05:13:27 10° S
STARLINK-27 4.4 05:06:56 10° NNW 05:10:26 33° NE 05:12:53 17° E
STARLINK-1304 3.7 05:06:18 10° WNW 05:10:31 75° SSW 05:13:54 16° SE
STARLINK-74 4.4 05:08:33 10° NNW 05:12:04 34° NE 05:14:28 17° E
STARLINK-1286 3.8 05:08:35 10° WNW 05:12:49 70° SSW 05:16:08 16° SE
Meteor 2-20 Rocket 4.4 05:07:21 10° S 05:13:37 70° E 05:19:47 10° NNE
STARLINK-39 4.3 05:10:08 10° NNW 05:13:41 35° NE 05:16:02 18° E
Cosmos 2228 Rocket 3.9 05:09:55 10° SSW 05:14:26 57° W 05:18:51 10° N
STARLINK-31 4.3 05:11:44 10° NNW 05:15:19 36° NE 05:17:37 19° E
STARLINK-1362 4.5 05:13:09 10° SW 05:16:26 28° SSE 05:18:12 19° ESE
STARLINK-1365 4.5 05:13:22 10° SW 05:16:40 28° SSE 05:18:26 19° ESE
STARLINK-69 4.1 05:13:26 10° NNW 05:17:05 40° NE 05:19:23 20° ESE
USA 116 4.3 05:13:22 10° NNE 05:18:11 84° ESE 05:23:30 10° SSW
STARLINK-21 4.2 05:14:58 10° NNW 05:18:36 39° NE 05:20:47 20° E
Cosmos 1371 Rocket 4.2 05:13:44 10° SSW 05:19:03 50° ESE 05:24:15 10° NE
STARLINK-1373 4.5 05:15:57 10° SW 05:19:14 28° SSE 05:20:51 20° ESE
Cosmos 1934 Rocket 4.4 05:13:49 10° NNW 05:20:08 70° W 05:26:37 10° S
STARLINK-45 4.0 05:16:42 10° NNW 05:20:24 44° NE 05:22:35 21° ESE
STARLINK-1390 4.4 05:18:38 10° SW 05:21:55 29° SSE 05:23:23 22° ESE
STARLINK-70 4.0 05:18:17 10° NNW 05:21:59 44° NE 05:24:06 22° ESE
SL-16 R/B 3.8 05:19:48 10° NE 05:22:27 14° E 05:22:27 14° E
STARLINK-1048 4.5 05:19:03 10° NNW 05:22:53 36° NE 05:25:03 21° E
Cosmos 1862 Rocket 4.4 05:19:23 10° SSE 05:23:26 30° ESE 05:27:24 10° NE
STARLINK-1029 4.3 05:20:36 10° W 05:23:29 30° SSW 05:25:14 18° SSE
STARLINK-76 4.0 05:19:49 10° NNW 05:23:31 43° NE 05:25:32 23° E
STARLINK-71 4.0 05:19:47 10° NNW 05:23:42 47° NE 05:25:57 23° ESE
Cosmos 158 Rocket 4.0 05:19:10 10° N 05:24:18 70° ENE 05:29:39 10° SSE
STARLINK-23 4.0 05:21:26 10° NNW 05:25:09 44° NE 05:27:06 24° E
STARLINK-32 3.9 05:23:03 10° NNW 05:26:46 46° NE 05:28:40 25° E
STARLINK-1299 4.2 05:22:33 10° WNW 05:26:48 53° SSW 05:29:38 20° SE
Cosmos 2333 Rocket 2.6 05:21:02 10° NW 05:26:48 69° WSW 05:32:37 10° SSE
STARLINK-1306 4.1 05:23:03 10° WNW 05:27:15 57° SSW 05:30:00 20° SE
Cosmos 405 3.1 05:24:07 10° SSW 05:27:43 81° W 05:31:15 10° N
Cosmos 2112 Rocket 4.0 05:22:30 10° NNW 05:27:49 76° ENE 05:33:08 10° SSE
STARLINK-1049 4.3 05:23:55 10° NNW 05:27:50 39° NE 05:29:49 24° E
STARLINK-40 3.9 05:24:42 10° NNW 05:28:27 47° NE 05:30:18 26° ESE
Okean O Rocket 1.7 05:24:46 10° SSE 05:29:12 58° E 05:33:35 10° N
H-2A R/B 2.8 05:25:46 10° SSE 05:29:39 60° E 05:33:30 10° N
STARLINK-44 3.8 05:26:17 10° NW 05:30:01 49° NE 05:31:48 27° ESE
STARLINK-1281 4.0 05:26:19 10° WNW 05:30:28 57° SSW 05:33:02 22° SE
Meteor 1-10 Rocket 4.4 05:24:54 10° SSW 05:30:36 80° W 05:36:20 10° N
Cosmos 1605 Rocket 4.0 05:24:42 10° N 05:30:57 87° W 05:37:12 10° S
Cosmos 2278 Rocket 2.2 05:25:45 10° SSW 05:31:26 60° ESE 05:37:03 10° NE
STARLINK-37 3.7 05:28:03 10° NW 05:31:52 54° NE 05:33:38 28° ESE
STARLINK-29 2.9 05:28:47 10° SW 05:32:07 79° SSE 05:34:00 24° ENE
STARLINK-1051 4.2 05:28:50 10° NNW 05:32:48 43° NE 05:34:37 27° E
Sich 1 3.1 05:28:52 10° N 05:33:16 86° W 05:37:47 10° S
STARLINK-36 3.7 05:29:31 10° NW 05:33:16 52° NE 05:34:57 29° ESE
STARLINK-68 3.6 05:31:18 10° NW 05:35:08 59° NE 05:36:47 31° ESE
STARLINK-1310 4.1 05:31:21 10° WNW 05:35:28 53° SSW 05:37:49 24° SE
STARLINK-63 3.6 05:32:54 10° NW 05:36:44 58° NE 05:38:18 32° ESE
SMAP 3.4 05:32:36 11° SSE 05:36:54 45° E 05:41:24 10° N
STARLINK-35 3.6 05:34:25 10° NW 05:38:13 57° NE 05:39:43 33° ESE
STARLINK-51 3.6 05:36:06 10° NW 05:39:56 60° NE 05:41:22 34° ESE
STARLINK-1319 4.2 05:36:21 10° WNW 05:40:27 50° SSW 05:42:36 25° SE
Cosmos 1346 Rocket 4.4 05:37:08 10° NW 05:40:48 36° WSW 05:44:34 10° S
STARLINK-30 3.5 05:37:43 10° NW 05:41:33 61° NE 05:42:55 36° ESE
STARLINK-1028 3.9 05:38:40 10° NW 05:42:44 51° NE 05:44:12 34° E
STARLINK-72 3.5 05:39:25 10° NW 05:43:15 64° NE 05:44:35 37° ESE
Cosmos 2360 Rocket 4.2 05:39:49 10° W 05:44:17 23° SW 05:48:45 10° S
STARLINK-1277 4.3 05:41:22 10° W 05:45:27 47° SSW 05:47:22 27° SSE
STARLINK-59 3.4 05:42:43 10° NW 05:46:35 71° NE 05:47:48 41° ESE
Cosmos 2056 Rocket 3.4 05:42:08 10° SSW 05:47:33 74° ESE 05:52:48 10° NNE
STARLINK-1021 3.8 05:43:35 10° NW 05:47:41 56° NE 05:48:58 38° E
STARLINK-56 3.4 05:44:17 10° NW 05:48:09 70° NE 05:49:17 43° ESE
ATLAS 2AS CENTAUR R/B 3.6 05:44:03 10° SSW 05:49:33 28° SE 05:51:06 25° ESE
STARLINK-73 3.4 05:45:55 10° NW 05:49:47 72° NE 05:50:52 45° ESE
STARLINK-1276 4.4 05:46:24 10° W 05:50:27 45° SSW 05:52:09 29° SSE
STARLINK-38 3.4 05:47:33 10° NW 05:51:27 74° NE 05:52:27 47° ESE
NOAA 6 4.4 05:47:14 10° S 05:52:25 67° WSW 05:57:31 10° NNW
STARLINK-1019 3.7 05:48:32 10° NW 05:52:40 61° NE 05:53:46 43° E
STARLINK-24 3.5 05:48:56 10° NW 05:53:00 81° NE 05:54:10 45° ESE
CZ-2C R/B 3.5 05:53:39 29° SE 05:53:39 29° SE 05:57:42 10° S
STARLINK-65 3.4 05:49:13 10° NW 05:53:06 76° NE 05:54:03 49° ESE
STARLINK-53 3.4 05:51:07 10° NW 05:55:01 82° NE 05:55:57 51° ESE
STARLINK-1305 4.5 05:51:26 10° W 05:55:27 42° SSW 05:56:57 30° SSE
STARLINK-25 3.3 05:52:41 10° NW 05:56:27 78° NE 05:57:08 57° ESE
STARLINK-1012 3.6 05:53:28 10° NW 05:57:37 67° NE 05:58:32 50° E
Cosmos 1818 3.5 05:52:24 10° NNW 05:57:49 83° ENE 06:00:42 29° SE
Cosmos 1933 Rocket 4.3 05:55:40 10° NNE 05:58:46 34° ENE 05:58:46 34° ENE
Cosmos 1666 Rocket 3.9 05:55:25 10° NNW 05:59:47 66° W 06:04:11 10° S
Cosmos 1633 Rocket 3.2 05:57:26 10° NNW 06:01:53 77° W 06:06:25 10° S
Shenzhou-11 Module 2.8 05:59:19 10° WNW 06:01:12 41° WNW 06:01:12 41° WNW
YAOGAN 6 2.5 06:03:03 63° ESE 06:03:20 67° E 06:07:01 10° N
BREEZE-M DEB (TANK) 4.1 06:00:07 10° WSW 06:04:25 74° NNW 06:22:08 10° NE
Meteor 1-25 Rocket 4.3 06:00:20 10° NNE 06:05:41 50° E 06:07:53 33° SE
Centaur D AC-29 3.9 06:00:44 10° NW 06:06:19 16° NNW 06:09:23 10° NNE
Cosmos 2219 Rocket 3.5 06:02:13 10° WNW 06:07:28 37° SW 06:12:47 10° SSE
STARLINK-1026 3.5 06:03:23 10° NW 06:07:34 79° NE 06:08:07 65° E
Cosmos 2100 Rocket 3.9 06:01:29 10° N 06:07:40 74° E 06:13:54 10° SSE
STARLINK-52 3.5 06:05:01 10° WSW 06:08:15 56° NW 06:08:30 54° NNW
STARLINK-50 3.5 06:05:05 10° WNW 06:09:10 83° SW 06:09:41 67° SE
STARLINK-1338 4.0 06:07:15 10° SW 06:10:05 42° S 06:10:05 42° S
STARLINK-1013 3.5 06:08:19 10° NW 06:12:31 85° NE 06:12:52 74° ESE
FALCON 9 DEB 3.3 06:09:36 10° WSW 06:12:55 74° W 06:12:55 74° W
STARLINK-1371 4.2 06:12:40 10° SW 06:15:21 40° SSW 06:15:21 40° SSW
STARLINK-1009 3.5 06:13:17 10° NW 06:17:29 89° SW 06:17:39 83° SE
Cosmos 1452 Rocket 3.7 06:12:47 10° SSW 06:17:28 48° SE 06:17:28 48° SE
STARLINK-1341 4.2 06:15:25 10° SW 06:18:03 40° SSW 06:18:03 40° SSW
SL-4 R/B 4.3 06:17:40 10° W 06:20:33 20° NW 06:23:35 10° N
Cosmos 1420 Rocket 3.9 06:15:59 10° SSW 06:21:24 77° ESE 06:24:08 30° NNE
STARLINK-1374 4.3 06:17:59 10° SW 06:20:30 38° SSW 06:20:30 38° SSW
Cosmos 1980 4.0 06:16:37 10° NW 06:22:17 68° WSW 06:25:38 26° SSE
STARLINK-1015 3.6 06:18:16 10° WNW 06:22:26 83° SW 06:22:26 83° SW
CZ-4C R/B 4.4 06:20:48 10° SSW 06:23:35 13° S 06:24:38 12° SSE
STARLINK-1339 4.4 06:20:43 10° SW 06:23:10 37° SW 06:23:10 37° SW
Cosmos 2061 Rocket 3.9 06:18:16 10° N 06:24:28 64° E 06:28:12 25° SSE
Cosmos 1238 Rocket 4.0 06:20:34 10° NNW 06:24:55 45° W 06:27:18 20° SSW
Envisat 3.3 06:21:20 13° S 06:26:00 69° WSW 06:31:05 10° NNW
STARLINK-1016 3.7 06:23:15 10° WNW 06:27:13 74° WSW 06:27:13 74° WSW
Meteor 1-20 Rocket 4.1 06:23:41 10° N 06:29:26 81° E 06:32:30 30° SSE
Feng Yun 1-1 Rocket 4.0 06:27:58 41° SSE 06:30:00 81° ENE 06:35:29 10° NNW
Cosmos 2297 4.0 06:25:55 10° SSW 06:30:33 48° SSE 06:30:33 48° SSE
STARLINK-1008 4.0 06:28:15 10° WNW 06:32:01 65° WSW 06:32:01 65° WSW
Helios 1A Rocket 3.2 06:33:10 66° WSW 06:33:10 66° WSW 06:37:11 10° NNW
STARLINK-81 4.3 06:30:23 10° WNW 06:33:34 49° WSW 06:33:34 49° WSW
Cosmos 2016 Rocket 3.9 06:28:43 10° N 06:34:59 76° E 06:39:15 23° SSE
Cosmos 1461 4.2 06:31:29 10° SW 06:35:06 35° WNW 06:36:32 26° NNW
Cosmos 1864 Rocket 4.4 06:29:48 10° N 06:35:52 64° E 06:36:18 63° ESE
STARLINK-54 4.4 06:32:04 10° WNW 06:35:11 45° WSW 06:35:11 45° WSW
USA 234 4.4 06:34:22 26° SSE 06:36:41 32° SSW 06:42:23 10° WSW
Cosmos 2173 Rocket 4.2 06:30:36 10° NNW 06:36:53 73° W 06:43:10 10° S
STARLINK-77 4.5 06:33:28 10° WNW 06:36:31 45° WSW 06:36:31 45° WSW
STARLINK-1014 4.2 06:33:15 10° WNW 06:36:51 57° W 06:36:51 57° W
STARLINK-1010 4.4 06:36:48 10° WNW 06:40:25 53° WSW 06:40:25 53° WSW
DMSP B5D2-2 4.5 06:42:44 51° S 06:42:44 51° S 06:46:41 10° S
Lacrosse 5 rocket 2.4 06:37:21 10° NW 06:40:18 42° NNW 06:40:18 42° NNW
STARLINK-1025 4.5 06:38:17 10° WNW 06:41:36 49° W 06:41:36 49° W
Cosmos 1459 Rocket 4.3 06:37:53 10° NNW 06:44:03 65° W 06:50:25 10° S
ATLAS 5 CENTAUR R/B 2.8 06:37:03 10° NW 06:44:13 73° SW 06:46:25 45° SSE
Cosmos 1816 Rocket 4.4 06:39:06 10° S 06:54:02 - NNE 06:45:21 71° ESE
SL-24 R/B - RUBIN 2 4.1 06:44:04 10° NW 06:48:23 61° WNW 06:48:23 61° WNW
Cosmos 371 Rocket 4.3 06:44:34 10° SSW 06:47:37 38° SSW 06:47:37 38° SSW
Cosmos 2237 Rocket 3.1 06:45:05 10° NW 06:50:30 45° WSW 06:52:55 29° S
Cosmos 1943 Rocket 4.0 06:47:24 10° SSW 06:48:58 18° S 06:48:58 18° S
Cosmos 2369 Rocket 4.2 06:49:18 10° S 06:50:30 15° S 06:50:30 15° S
ATLAS CENTAUR R/B 4.2 06:54:21 10° SSW 06:54:46 12° SSW 06:54:46 12° SSW
BREEZE-M DEB (TANK) 4.1 06:44:54 10° NW 06:59:37 71° NNE 06:59:37 71° NNE
Okean O Rocket 4.4 07:02:20 10° SSW 07:05:05 16° WSW 07:07:49 10° W
SL-16 R/B 2.8 07:00:13 10° NNW 07:04:24 51° NNW 07:04:24 51° NNW
BREEZE M DEB (TANK) 3.9 06:52:54 10° WSW 07:12:58 84° SSE 07:13:12 82° ESE
Cosmos 1725 Rocket 4.2 07:07:05 10° NNW 07:13:21 70° W 07:13:48 67° SW
NOSS 3-4 (A) 4.1 07:07:42 10° SW 07:13:16 53° SSW 07:13:16 53° SSW
NOSS 3-4 (C) 4.1 07:07:49 10° SW 07:13:20 52° SSW 07:13:20 52° SSW
CZ-2C R/B 4.3 07:35:10 30° SW 07:35:10 30° SW 07:38:19 10° SSW
ATLAS 2AS CENTAUR R/B 3.6 07:34:28 10° SW 07:38:35 42° SW 07:38:35 42° SW
